Location: Kapla
(46.2483°N, 15.0094°E)
Time: 18:46:07
(UTC+00:00)

Cosmos 1354 Rocket - Pass Details

Date: 03 March 2021
Orbit: 765 x 782 km, 74.0° (Epoch: 15 April)

Event Time Altitude Azimuth Distance (km) Brightness Sun altitude
Rises 18:19:28 0° 336° (NNW) 3,250 7.7 -16.4°
Reaches altitude 10° 18:21:52 10° 335° (NNW) 2,317 6.9 -16.8°
Maximum altitude 18:27:07 76° 251° (WSW) 793 4.1 -17.7°
Drops below altitude 10° 18:32:19 10° 166° (SSE) 2,296 6.2 -18.6°
Enters shadow 18:33:30 - 166° (SSE) 2,757 6.6 -18.8°
